Theta_e
335 333 336 335 335 335 338 340 342 341 342 343 348 347 349 350 350 352 351 354 357 355 357 360 358 358 357 356 357 358 357 359 358 356 357 356 357 357 356 353 355 360 355 354 358 359 363 362 364 362 364 365 367 369 374 373 374 367 371 371 372 376 372
336 334 335 335 335 336 341 342 343 343 343 346 347 349 348 348 350 350 352 354 356 355 356 357 359 358 357 358 356 359 360 358 360 362 356 361 362 362 357 357 357 360 362 357 359 362 365 362 363 365 366 366 363 371 370 372 371 372 368 372 371 377 371
336 334 334 334 334 336 341 340 341 342 344 343 345 347 348 352 352 352 353 352 355 356 356 356 358 356 357 359 359 358 357 356 357 355 354 352 351 351 354 358 356 355 353 356 358 357 358 360 367 368 365 363 361 368 369 369 371 368 372 374 369 368 372
338 338 336 337 338 338 338 339 341 343 345 344 345 346 348 353 353 353 352 353 353 355 355 354 355 354 355 357 356 357 356 357 356 353 353 352 350 351 354 356 358 355 356 354 353 354 354 357 361 365 367 364 364 364 364 365 363 366 367 372 370 368 373
338 338 336 336 335 337 337 338 339 342 343 343 349 350 349 350 352 352 352 353 353 354 354 354 355 355 355 356 355 354 355 355 355 354 353 353 355 354 351 350 351 351 354 353 357 360 361 359 356 360 362 367 362 365 364 365 363 367 368 370 370 366 369
334 337 337 337 336 334 336 338 340 343 344 345 346 346 348 351 350 351 353 353 353 353 354 354 353 355 354 354 354 354 356 357 360 358 354 353 353 349 349 350 349 351 350 351 352 352 354 353 355 357 357 358 358 357 358 358 359 359 366 372 370 364 359
337 338 339 339 336 335 335 339 339 346 346 346 346 347 349 349 347 352 353 353 352 352 351 351 351 352 354 354 355 355 354 354 355 353 352 350 350 349 349 350 352 349 349 352 351 351 349 352 355 358 356 355 358 354 357 361 360 361 367 370 370 367 370
342 343 345 343 338 336 336 340 341 342 345 348 350 349 346 348 349 349 351 353 352 353 353 352 350 352 354 355 353 352 352 353 353 354 353 349 348 349 348 348 350 352 351 347 351 353 348 353 351 354 355 353 353 356 354 360 364 355 362 365 366 363 359
342 340 341 339 339 344 338 339 342 341 344 345 346 348 347 350 348 349 352 356 351 353 352 350 351 352 356 355 353 353 352 351 352 352 351 349 348 347 347 347 347 350 348 345 347 354 355 352 352 360 359 357 358 362 358 363 360 360 362 363 363 363 360
346 346 346 347 346 343 343 345 346 346 345 342 346 348 348 350 350 350 350 352 351 350 351 352 352 353 355 356 354 351 352 352 351 350 350 349 349 347 347 347 347 350 350 353 352 353 361 367 357 359 367 357 361 364 363 364 360 360 359 362 362 362 367
344 345 344 346 342 343 345 347 345 349 347 347 352 349 351 354 352 351 356 359 357 359 355 356 357 355 356 355 354 351 351 350 350 348 348 348 347 346 347 347 346 350 352 351 350 355 356 363 367 364 362 350 354 358 364 361 360 361 357 358 359 360 358
345 344 345 343 345 346 346 348 350 355 349 352 351 355 359 358 356 353 360 357 356 356 355 359 359 357 358 354 354 356 352 351 350 348 348 347 347 346 346 346 346 347 349 352 350 355 352 357 354 354 357 355 355 356 361 365 364 366 365 357 356 358 359
344 344 343 344 343 345 345 348 350 350 355 355 355 358 355 358 358 352 361 357 357 358 355 359 361 364 362 360 357 358 355 350 350 349 347 347 347 346 346 345 345 346 348 350 351 349 350 352 357 358 356 357 356 355 360 361 357 365 364 361 360 358 361
345 345 345 346 345 345 346 346 348 350 348 352 348 347 348 350 356 355 360 358 359 361 361 360 361 363 364 363 362 361 359 359 355 352 354 353 355 352 346 346 346 349 350 351 352 348 348 348 350 354 355 357 356 358 359 362 363 365 365 362 360 358 358
339 340 342 344 347 348 345 345 347 345 344 348 351 347 344 347 351 351 354 362 363 365 366 366 364 362 361 358 360 363 365 365 366 365 357 366 365 357 351 349 348 352 356 356 352 350 350 350 349 352 356 357 358 358 356 356 358 358 359 363 367 364 360
338 339 340 341 342 343 348 350 351 347 345 349 348 348 348 351 352 353 354 355 356 350 352 359 352 350 349 345 348 356 356 361 366 365 365 362 359 357 358 361 357 349 349 350 351 357 360 358 356 352 353 354 356 356 354 353 352 368 366 367 366 364 362
338 342 341 341 341 341 344 348 349 351 352 350 348 346 348 350 352 353 354 353 352 352 351 352 352 350 349 346 349 352 358 362 362 365 361 360 359 361 359 362 359 356 353 350 350 352 354 356 352 352 351 352 353 352 353 355 363 362 347 349 360 361 363
335 339 341 343 344 345 346 346 347 348 350 350 351 351 350 348 347 349 348 352 350 350 350 349 350 350 350 350 351 350 356 361 364 362 360 359 359 360 361 359 359 356 354 357 356 354 355 356 352 355 350 352 355 358 361 364 356 343 343 347 348 357 364
335 339 340 342 342 344 345 345 347 348 349 350 349 352 350 347 345 346 347 351 352 348 348 348 350 350 348 348 353 352 354 357 361 360 359 358 354 352 353 355 356 356 355 356 355 351 352 352 357 356 357 354 355 358 359 360 346 337 342 343 345 347 357
338 339 340 342 342 342 344 345 347 348 350 351 352 351 349 348 347 347 348 352 354 349 351 350 350 351 349 350 356 360 359 359 358 357 357 357 357 355 354 352 352 354 354 354 355 354 352 353 353 354 355 357 359 363 362 363 349 337 341 341 342 343 351
336 337 337 339 340 342 344 345 346 347 347 348 349 349 347 347 349 349 349 352 355 355 353 347 344 346 350 355 358 359 359 360 359 357 357 355 353 353 353 354 355 354 354 353 351 349 349 351 350 350 352 354 355 359 360 359 336 334 337 336 336 338 355
336 337 337 338 339 340 342 343 345 346 346 348 349 348 347 344 346 347 346 347 350 348 346 346 346 345 345 349 355 357 358 359 359 359 359 358 355 354 354 355 356 353 354 352 350 349 349 348 349 350 352 353 353 355 355 351 330 332 331 330 331 340 351
336 336 338 339 340 341 343 345 345 347 348 347 347 348 345 343 344 344 345 345 344 345 345 346 345 347 348 353 354 357 359 359 357 357 357 358 357 357 356 355 355 355 355 351 349 350 347 347 348 352 353 352 351 350 348 349 328 322 324 326 327 339 351
337 337 338 338 340 341 343 344 346 348 348 347 347 348 346 343 344 343 343 344 342 342 342 343 346 347 347 349 351 356 358 359 359 356 356 356 355 356 358 358 357 356 355 351 348 348 350 351 354 353 352 351 352 351 354 339 327 320 321 322 324 335 346
336 337 337 338 338 339 340 341 343 346 347 348 346 348 348 345 343 342 340 340 342 341 339 339 342 347 349 350 353 355 356 357 357 357 356 355 355 356 356 356 355 356 355 355 353 353 355 350 348 349 349 351 352 352 352 339 330 316 317 319 324 335 345
335 335 336 338 339 340 340 341 341 341 343 344 347 348 348 347 344 343 340 339 343 342 340 341 343 349 352 350 352 354 355 355 354 355 355 354 355 356 357 356 355 354 354 354 354 351 351 351 347 347 351 351 348 345 344 340 330 320 312 314 318 327 342
335 336 336 336 338 341 338 339 339 339 340 343 346 349 348 347 345 343 344 343 342 342 344 347 350 350 350 351 352 353 353 353 353 352 352 353 354 354 354 353 350 350 350 351 351 349 352 352 349 347 347 349 345 338 335 336 330 320 311 310 312 316 332
335 335 337 338 339 338 337 337 337 338 339 342 344 347 347 347 345 344 344 344 343 344 349 349 348 348 349 349 350 350 350 351 351 350 350 350 351 349 351 350 350 349 350 351 348 347 346 348 344 343 343 345 343 336 331 330 330 325 315 310 309 311 318
332 332 333 335 335 337 336 335 335 336 337 339 341 344 345 345 343 343 343 343 344 347 348 348 347 348 347 347 347 347 348 348 349 349 348 349 350 348 347 348 347 348 349 347 346 345 344 342 341 341 340 340 337 333 328 326 324 325 322 314 309 310 314
332 332 333 334 335 335 335 334 335 335 336 337 338 340 342 342 340 340 340 340 345 346 346 346 347 347 346 346 345 345 346 346 347 348 348 349 349 348 345 344 344 344 345 346 344 341 340 340 340 339 338 334 332 331 329 327 324 325 325 322 313 311 311
331 331 331 332 332 334 333 333 333 334 334 335 336 337 338 339 338 337 337 341 345 344 345 345 346 346 345 345 345 344 345 345 345 346 347 346 346 343 342 340 339 337 338 340 339 337 335 335 337 335 331 328 326 326 328 329 329 327 326 324 321 315 315
331 331 331 332 331 332 332 333 333 333 333 334 336 337 338 338 339 337 338 342 343 344 344 343 343 341 340 339 339 338 337 334 333 334 336 342 345 343 343 341 338 337 336 336 336 335 334 333 332 329 327 325 324 324 325 327 328 328 328 327 323 322 319
329 329 330 330 332 333 332 332 331 331 331 332 334 335 335 336 337 338 339 339 339 340 340 339 338 336 335 334 334 334 334 332 331 329 329 330 335 341 342 341 339 338 337 336 334 333 332 331 330 327 325 324 324 324 325 325 325 325 327 329 330 325 323
330 330 331 333 333 333 332 332 330 331 332 333 334 335 335 335 335 337 338 337 338 338 338 337 336 334 333 333 333 332 332 331 331 327 323 322 322 322 326 333 335 332 331 332 333 331 330 330 328 326 325 323 323 324 324 323 325 326 327 327 328 328 329
331 331 331 331 332 334 334 333 333 333 333 333 335 336 336 335 335 336 337 338 338 338 336 335 335 333 333 332 332 331 330 329 328 326 323 320 317 315 313 315 323 330 326 321 319 327 331 329 326 327 326 326 325 324 323 324 325 325 309 314 305 315 322
331 331 330 331 331 332 333 334 334 334 334 335 337 336 335 335 337 337 335 334 335 337 337 337 335 334 333 332 331 331 330 330 330 329 328 326 323 320 316 308 300 306 322 322 313 308 304 314 329 328 329 328 326 322 326 325 327 303 296 295 294 295 296
328 329 329 330 330 330 330 330 331 331 332 333 335 335 336 335 332 333 333 337 339 339 338 338 336 334 331 331 331 330 330 330 330 331 332 331 330 329 326 323 317 298 297 304 306 301 297 297 299 306 315 329 325 313 302 302 298 295 294 295 293 293 293
328 328 329 329 329 329 329 328 329 330 331 332 333 333 334 330 333 336 334 336 337 338 339 336 335 333 332 332 334 336 335 332 332 332 332 332 332 331 330 327 325 320 302 296 299 299 295 295 296 296 298 304 313 322 316 303 296 293 293 293 293 294 293
Wind_Speed
16 15 12 13 14 17 16 16 16 15 14 14 15 14 14 11 11 12 13 12 13 12 12 11 10 9 10 8 8 7 7 6 6 6 5 6 5 5 6 7 7 5 6 6 5 6 4 2 1 4 6 6 5 4 3 3 4 5 6 5 4 3 4
12 14 13 15 14 14 17 16 15 15 13 13 14 13 13 14 12 13 12 14 14 14 13 13 11 10 10 8 8 8 7 8 7 5 6 5 4 4 4 5 5 5 5 5 5 4 3 5 4 4 3 6 6 5 5 4 4 3 3 3 3 3 2
12 13 14 14 15 14 19 18 17 15 14 15 15 15 14 13 13 13 13 15 15 14 13 13 12 11 10 9 9 9 9 9 8 9 8 8 8 8 7 5 5 6 7 7 6 6 6 6 5 4 4 5 7 5 5 5 4 4 3 3 3 4 4
11 10 12 14 13 13 16 18 18 16 16 16 16 17 16 14 15 12 14 16 16 15 15 14 14 13 12 10 10 9 10 9 9 10 10 8 9 8 7 6 5 5 6 6 7 7 7 6 7 6 7 5 5 8 6 5 6 5 5 5 4 4 4
14 14 14 13 15 13 14 16 16 15 18 17 16 14 13 15 15 14 14 16 16 17 16 15 13 13 11 12 10 10 11 12 10 9 9 7 6 7 7 9 8 8 6 7 5 5 6 7 7 6 6 4 5 4 6 6 5 5 4 5 4 5 5
16 14 11 11 12 14 14 15 17 15 16 16 17 17 15 16 14 16 15 16 16 16 15 14 14 12 12 12 11 10 10 9 7 7 7 7 7 8 8 8 9 8 8 7 5 5 4 6 6 7 8 8 8 7 7 7 7 7 5 3 4 5 5
10 10 9 8 11 13 15 14 16 15 15 14 13 14 15 16 16 16 15 16 16 16 16 16 15 14 11 11 10 10 11 12 10 11 9 10 9 9 8 8 7 7 8 6 6 6 7 6 6 6 7 8 7 8 6 6 6 6 4 5 5 5 3
6 5 6 7 9 14 13 12 13 17 15 12 10 11 15 15 15 15 16 15 15 13 12 13 13 12 11 10 10 11 12 11 11 10 9 11 10 9 9 9 7 6 6 8 6 6 8 6 6 5 7 8 6 6 7 7 6 5 6 5 4 5 6
7 8 6 2 7 7 8 12 11 14 15 15 16 12 10 9 13 14 12 10 12 12 13 14 13 11 9 9 9 10 11 11 11 11 11 11 10 11 10 9 9 7 8 9 7 5 5 7 6 4 4 5 4 4 5 2 3 3 3 4 6 5 6
5 6 5 6 4 1 10 8 8 9 11 14 15 13 12 11 12 13 15 15 13 14 16 14 12 10 10 9 11 13 11 10 10 12 12 12 10 11 11 9 8 7 7 6 4 7 4 3 7 6 3 4 4 3 3 2 3 3 5 4 4 4 3
3 5 6 2 6 5 3 11 7 6 8 9 9 11 8 9 10 9 8 7 7 7 10 9 9 9 10 11 11 12 11 11 11 11 12 12 10 11 10 10 9 7 7 6 5 6 5 3 2 3 3 6 5 4 3 3 3 4 5 5 5 5 5
5 4 4 4 1 4 4 4 9 5 8 7 8 7 6 8 8 8 8 9 9 9 10 9 7 10 9 11 10 8 11 11 11 11 11 11 11 11 10 10 10 9 9 7 6 4 6 6 5 5 5 6 6 5 4 3 3 3 4 6 6 4 4
6 5 5 4 3 2 2 4 3 5 4 5 3 6 8 6 6 8 6 10 10 9 9 8 6 5 7 9 9 8 9 11 11 9 10 10 10 9 9 10 10 9 9 8 7 7 6 7 7 6 6 6 7 8 5 5 7 4 4 5 5 5 4
5 8 6 4 4 5 4 2 3 8 8 9 8 9 11 8 7 8 5 9 8 7 6 7 8 8 8 7 7 7 8 6 8 9 6 6 5 6 8 9 9 7 5 7 8 9 10 9 9 9 9 7 8 6 6 5 5 4 4 5 5 6 6
4 6 6 6 5 5 5 5 4 7 1 4 4 5 3 3 7 3 9 6 4 1 3 4 5 4 2 1 2 3 4 4 3 3 3 1 1 2 6 7 7 5 3 4 7 9 10 10 10 9 9 9 7 7 6 6 6 6 6 5 2 4 6
6 4 4 5 4 3 5 6 7 11 8 4 5 2 1 3 2 3 4 1 8 9 9 4 8 8 9 8 5 5 4 7 3 3 6 6 4 3 6 7 6 5 4 5 6 6 6 6 5 8 9 9 8 7 7 7 6 7 4 4 3 3 4
4 5 4 3 2 2 1 3 5 7 8 8 6 7 5 2 1 3 4 6 7 8 6 9 3 7 9 9 5 1 2 4 3 3 5 3 3 2 2 3 3 5 7 9 12 14 15 14 11 7 7 12 9 8 8 5 2 5 6 6 5 3 2
2 5 6 6 5 3 2 2 2 2 3 8 10 8 8 6 2 5 2 4 6 9 8 3 3 5 6 6 4 4 2 1 2 4 4 3 2 0 1 1 2 5 4 3 4 4 4 4 2 4 8 2 6 5 3 2 3 1 4 4 2 3 2
5 3 6 6 6 5 5 4 3 2 1 1 4 5 7 10 9 9 4 3 7 8 7 7 4 5 5 5 5 5 6 4 3 5 5 3 1 1 0 1 3 3 3 4 5 2 0 2 3 4 2 3 5 5 2 1 3 4 5 5 4 3 2
6 7 7 7 6 5 5 4 4 3 4 4 6 7 7 4 7 7 5 3 7 8 6 7 5 4 4 4 4 6 6 6 5 6 5 4 4 2 2 2 2 2 3 4 4 4 3 3 4 4 3 4 5 5 2 1 4 5 4 3 3 4 3
7 6 7 7 7 6 5 5 4 4 3 4 6 7 8 4 5 3 5 3 5 8 7 7 4 3 2 2 4 5 5 5 5 6 5 4 4 3 2 2 3 4 4 4 4 4 4 4 5 2 3 4 4 6 5 3 6 3 5 5 4 4 3
6 6 6 6 6 6 6 6 5 4 5 4 6 9 8 4 2 2 5 4 5 7 8 8 8 7 4 7 3 5 4 4 4 4 5 5 4 4 4 4 4 4 5 5 3 2 2 2 3 3 2 3 5 5 7 7 7 8 7 7 6 5 2
6 6 7 7 8 8 7 7 5 5 4 4 4 7 9 8 2 2 3 4 3 4 5 5 7 8 8 6 3 4 4 5 5 4 5 5 6 6 5 5 5 5 5 5 4 4 3 3 4 4 4 4 4 5 3 4 6 8 8 7 7 2 2
6 7 8 8 7 8 9 9 6 5 4 2 4 8 11 10 3 2 2 5 4 4 7 6 6 5 3 2 2 3 3 3 4 5 6 6 6 4 3 4 3 4 5 5 4 4 4 3 2 1 1 1 2 3 1 4 6 10 9 8 6 4 4
8 8 8 8 8 8 9 8 7 6 7 5 4 7 11 12 10 6 4 5 4 3 4 2 1 3 4 3 3 2 2 2 2 3 4 5 4 4 3 4 4 3 4 3 4 3 3 3 1 0 1 2 2 5 5 6 7 10 8 7 5 4 3
8 8 8 7 8 7 8 8 9 10 9 8 6 8 9 10 9 8 7 5 3 4 4 4 4 2 3 4 3 4 2 1 1 2 4 5 4 3 3 3 3 2 2 2 2 3 4 5 5 4 3 6 8 7 7 7 7 7 9 7 6 5 3
7 7 7 7 8 8 8 8 9 9 10 8 7 5 7 7 7 8 8 8 6 4 3 3 2 3 2 3 1 1 2 2 2 1 1 1 2 2 3 4 2 1 1 2 1 1 0 6 5 4 4 5 8 8 7 6 7 7 10 9 8 7 4
7 8 8 9 9 8 7 8 9 10 10 9 9 7 5 6 7 8 7 7 7 5 4 4 4 5 4 3 2 3 2 3 3 2 1 2 3 3 1 3 3 3 3 4 5 6 4 4 6 5 4 4 7 8 7 8 10 6 9 10 11 11 10
8 9 9 10 10 10 9 8 10 10 10 9 9 8 9 11 11 9 8 7 5 5 5 4 5 5 5 4 3 3 3 2 2 3 2 0 1 0 0 3 3 2 2 3 5 4 7 6 6 5 5 5 6 6 6 6 6 9 8 10 11 11 12
8 9 10 11 10 9 10 10 10 10 11 10 9 9 8 9 10 9 9 10 7 5 3 4 4 5 4 3 4 5 3 4 4 4 3 3 3 4 4 4 3 3 3 6 6 6 6 6 6 5 5 6 6 5 5 5 6 8 10 8 10 11 12
8 9 10 10 9 8 10 10 11 11 11 10 10 8 8 8 10 11 10 6 5 7 6 6 5 5 5 4 4 2 2 4 5 4 2 3 4 5 5 5 4 3 5 4 6 6 5 3 3 5 7 6 5 4 4 4 4 4 7 11 10 11 12
8 8 9 10 9 8 8 8 10 11 11 10 9 8 8 9 9 10 8 6 6 7 6 7 8 8 9 8 8 8 8 8 7 7 7 6 4 5 4 4 5 3 4 5 7 6 5 5 4 4 5 6 5 4 4 3 3 3 3 4 8 8 11
8 8 9 10 9 8 8 9 10 10 11 11 10 10 9 9 9 9 8 8 9 9 8 9 10 9 9 8 7 6 7 7 5 7 8 7 6 5 5 6 5 6 5 5 5 5 5 5 5 5 5 5 4 4 4 4 3 2 2 2 3 5 5
6 7 9 9 9 8 7 7 8 9 9 9 9 9 10 10 10 10 9 10 9 8 10 10 9 8 8 8 7 7 8 7 11 8 6 7 7 6 6 6 6 6 5 4 4 5 4 5 5 5 5 5 4 4 4 4 2 2 2 2 2 2 3
6 7 8 8 7 6 6 7 9 9 9 8 7 7 8 10 10 11 10 9 9 8 10 10 11 10 10 9 9 8 8 7 6 6 8 8 8 8 6 4 4 5 5 5 4 3 4 5 5 5 4 5 4 4 4 3 2 2 3 3 4 3 2
7 7 8 7 7 7 7 8 9 10 9 6 5 6 8 8 7 7 11 10 9 9 9 9 9 9 8 8 8 8 8 6 7 8 7 6 6 7 7 10 11 8 5 4 8 9 6 2 4 4 3 4 4 4 2 1 2 6 8 7 7 7 7
7 6 7 7 8 8 8 8 8 9 9 7 6 7 7 7 10 9 8 6 7 7 7 6 6 7 7 8 8 8 8 8 8 7 6 6 7 5 5 6 9 13 12 9 7 7 9 11 10 10 7 3 2 3 6 6 7 9 8 7 6 5 3
7 7 7 7 7 7 8 8 8 8 8 7 6 7 6 7 8 8 9 7 6 6 7 7 7 7 6 6 6 6 6 6 6 6 5 6 6 6 5 5 6 6 10 11 10 11 11 11 11 11 11 10 7 3 2 4 6 7 7 6 4 5 5
Wind_Direction
207 200 187 184 181 179 172 168 173 180 178 172 170 178 169 170 174 164 170 173 172 175 173 175 178 175 176 180 178 177 176 174 173 180 180 179 192 174 182 184 171 193 179 173 185 183 182 207 107 183 166 172 161 179 191 181 172 192 177 189 175 206 212
212 200 188 187 185 175 158 174 173 177 179 174 172 170 168 178 176 172 169 174 175 177 177 176 180 177 178 181 180 178 180 178 176 177 181 178 185 166 189 192 174 193 184 188 171 163 176 168 190 180 189 164 170 188 184 197 195 208 195 179 204 179 230
205 210 198 188 182 182 164 173 179 178 180 178 180 173 177 175 174 177 168 174 176 179 179 179 181 181 180 182 178 180 183 182 181 182 189 187 189 192 189 189 195 195 198 184 174 174 183 188 171 165 192 195 179 190 194 195 198 199 179 198 187 192 217
198 228 208 187 183 178 175 176 180 175 180 189 178 181 174 169 178 177 172 176 178 179 182 180 184 184 185 183 183 183 185 188 188 186 194 191 187 202 185 184 203 202 200 186 191 182 184 189 180 181 199 201 188 184 195 197 195 201 188 193 211 213 204
194 214 214 191 188 177 183 180 181 180 184 187 162 180 170 179 174 180 177 180 182 181 184 181 183 185 185 186 189 186 190 190 192 191 193 195 188 200 192 197 188 212 188 202 189 188 151 197 185 191 190 196 204 197 191 191 198 203 200 186 213 220 198
194 210 219 197 183 184 187 180 185 180 179 181 173 181 174 176 184 182 182 179 183 183 183 184 185 182 188 190 194 187 188 191 190 195 196 195 196 197 203 206 191 204 194 202 199 196 191 192 197 189 194 197 211 202 206 197 207 201 199 177 209 241 217
188 196 207 207 198 188 190 182 187 163 174 184 189 184 182 185 191 181 184 178 184 182 184 187 187 182 189 190 196 190 187 191 192 195 199 201 201 200 201 203 214 193 210 186 209 184 193 210 204 192 193 206 205 214 197 201 200 191 177 179 204 237 264
125 90 335 325 225 197 191 185 186 186 178 177 189 192 184 188 186 188 186 180 183 181 184 186 189 181 185 193 191 197 192 195 191 197 199 206 201 204 202 203 205 202 209 207 202 198 188 200 213 220 193 208 210 220 215 191 194 201 167 187 218 220 230
138 144 138 129 351 317 219 191 190 188 185 176 180 187 187 175 195 188 182 184 184 172 181 188 190 183 178 191 188 202 195 196 192 194 202 206 208 201 210 204 202 210 205 218 193 202 200 180 207 220 233 232 214 213 251 164 175 202 240 204 200 213 240
138 146 143 159 174 95 321 261 196 190 184 188 174 177 189 185 192 189 189 182 185 180 182 187 187 184 178 185 194 199 200 197 200 195 199 206 210 203 207 210 203 198 220 215 206 174 196 203 182 209 211 214 249 246 219 189 194 222 222 231 244 239 227
126 111 98 113 182 190 356 329 241 192 186 194 156 174 189 178 177 178 189 162 169 174 178 186 179 185 173 185 198 198 201 199 205 203 200 206 209 209 204 216 211 188 199 212 233 166 175 198 228 219 216 233 224 234 223 218 214 219 238 242 227 225 237
136 120 109 131 26 50 37 19 339 310 199 184 159 160 160 157 180 173 145 165 175 181 187 183 189 182 172 185 197 200 202 200 204 207 202 206 211 212 207 212 221 198 182 196 226 229 176 181 206 222 220 223 231 225 218 222 231 234 243 251 254 246 240
131 133 149 158 163 151 83 26 25 292 336 22 87 139 170 173 165 170 156 169 176 182 193 175 179 172 180 180 193 192 210 204 201 208 209 202 213 213 211 211 219 215 180 184 203 218 222 193 197 205 222 219 222 229 217 209 220 219 231 243 251 260 250
114 125 126 151 166 171 155 131 31 34 8 25 55 38 19 352 1 341 184 171 175 184 196 179 172 180 175 177 194 189 205 220 202 204 208 208 203 228 225 217 220 219 191 177 195 211 221 221 208 207 217 221 220 223 225 210 209 210 228 242 245 242 243
180 150 134 121 106 133 159 156 108 96 180 303 31 75 139 184 118 117 324 5 43 55 215 144 107 67 62 103 233 221 208 223 273 237 211 17 20 253 254 233 226 234 225 198 204 212 219 224 221 216 213 214 220 224 218 226 208 215 225 223 255 322 282
182 180 158 140 143 131 132 123 129 140 183 182 104 80 286 292 83 129 185 41 49 31 359 32 109 126 92 67 6 329 25 336 343 65 59 53 59 60 6 347 340 304 274 249 217 207 223 232 228 238 226 220 217 218 223 221 227 84 64 148 148 238 282
177 157 146 142 126 129 92 102 104 137 153 130 161 194 184 216 121 211 153 104 102 82 9 330 77 112 126 154 186 33 324 225 223 97 95 103 108 80 44 20 358 46 49 28 18 12 4 338 318 282 350 352 326 267 229 227 111 142 142 202 202 227 262
172 143 142 136 123 120 126 75 77 85 127 154 170 169 163 136 13 301 17 108 124 121 119 128 258 138 136 136 149 154 151 281 167 119 112 101 82 104 140 92 70 74 54 47 52 68 87 91 11 357 89 160 259 278 298 69 43 116 182 221 202 60 20
97 110 112 120 123 118 116 124 96 87 32 134 166 152 115 129 183 228 149 179 126 137 152 167 148 132 131 143 154 180 176 183 148 114 116 120 127 151 121 85 92 106 103 86 92 94 346 97 48 44 66 205 249 256 242 154 150 208 197 203 169 94 359
67 57 49 60 81 101 100 97 91 86 73 76 75 88 80 90 208 205 135 180 138 145 160 151 127 128 140 155 178 174 163 171 149 135 133 143 157 170 165 112 96 90 95 106 107 122 135 101 68 28 316 303 311 303 290 221 166 178 151 125 104 62 22
42 41 47 48 44 46 59 71 99 97 78 79 86 111 127 148 239 223 147 172 150 137 131 109 101 31 353 199 170 153 163 166 152 143 149 154 154 158 173 186 154 172 159 138 143 182 196 132 115 162 265 296 304 291 293 286 138 136 108 89 79 52 8
38 32 41 41 40 34 26 30 31 48 87 92 106 109 106 112 332 34 129 45 129 113 119 124 130 151 223 260 219 167 177 172 153 158 162 166 171 177 182 194 198 173 155 132 152 224 239 128 126 180 228 295 280 310 322 0 43 57 53 43 36 24 308
39 41 38 36 38 40 30 26 20 30 30 90 98 112 118 118 173 107 98 107 119 103 124 135 145 155 181 196 190 196 192 164 162 167 185 192 187 192 191 193 189 160 151 142 160 208 231 204 188 193 172 185 208 187 258 277 359 41 41 39 20 348 271
47 47 40 35 34 35 28 23 20 28 38 82 114 104 117 127 134 114 98 97 81 74 101 113 137 161 170 155 204 223 200 175 183 181 192 200 206 202 183 159 179 171 162 160 150 189 219 214 234 72 77 302 276 63 69 109 28 36 34 32 16 333 295
37 50 43 32 33 37 32 21 10 30 44 35 121 120 125 135 146 139 88 49 71 72 64 44 129 154 161 172 190 201 183 189 226 195 199 203 203 207 195 171 190 168 157 159 162 158 160 150 57 347 199 191 68 101 88 97 54 36 28 23 9 336 292
25 26 36 33 39 41 47 30 24 31 39 43 72 122 124 134 140 142 137 135 160 147 157 191 234 193 142 176 188 161 139 106 271 243 216 213 203 192 191 164 133 124 106 134 139 152 178 177 178 185 92 89 83 72 73 83 71 42 36 27 9 355 309
32 35 38 38 40 44 46 47 44 39 39 43 48 96 123 135 135 134 139 143 150 172 167 152 150 93 67 55 47 81 126 139 181 178 352 297 215 177 173 147 159 250 161 168 160 181 38 125 120 97 92 83 87 80 65 64 83 60 44 35 34 27 21
30 32 41 46 47 47 48 48 50 50 46 43 52 68 100 115 120 119 125 132 134 142 117 125 109 101 103 116 117 105 99 85 68 66 58 236 240 232 146 116 149 175 173 165 183 170 149 106 105 104 106 97 96 89 82 64 65 83 54 48 41 35 34
40 42 38 41 49 50 54 54 52 51 47 48 49 47 72 84 83 83 83 86 107 98 102 111 124 121 116 120 121 138 130 114 133 115 140 228 336 2 44 58 36 346 242 202 163 146 131 125 119 121 125 112 87 85 81 75 66 66 72 59 55 48 44
50 47 50 51 50 53 58 61 60 58 54 52 47 46 51 75 83 79 75 64 59 75 108 135 134 128 124 127 135 149 163 155 159 130 135 127 93 57 62 64 69 350 258 158 138 128 124 119 124 121 103 83 65 67 81 82 80 60 61 62 59 58 59
53 57 61 62 55 54 62 67 69 66 64 59 54 50 54 58 75 75 71 68 68 72 79 96 106 108 109 107 101 99 100 65 59 71 85 89 89 95 88 77 48 46 353 36 96 97 93 85 115 123 116 104 92 78 75 79 85 93 81 76 67 66 71
60 63 68 70 63 51 64 71 71 77 82 79 70 67 61 61 63 74 80 72 67 82 84 82 78 76 69 63 56 59 65 65 49 49 50 54 75 98 104 111 107 61 45 40 56 67 88 102 81 77 87 96 108 114 106 89 81 72 84 99 84 72 68
81 75 72 71 70 62 54 58 69 68 73 77 76 75 73 70 72 76 74 73 79 80 75 72 73 72 71 71 68 67 72 73 66 62 57 50 42 56 78 88 94 104 97 87 93 93 99 95 99 91 96 114 124 125 121 102 76 94 84 41 88 94 90
93 84 80 84 87 85 80 72 69 64 62 68 74 78 79 79 75 75 77 82 85 84 85 88 86 84 82 85 84 76 72 74 78 76 69 55 47 33 29 36 61 63 57 69 91 120 115 119 118 125 132 134 133 126 109 110 149 153 126 91 64 93 129
120 109 101 96 102 104 102 92 83 77 74 79 89 93 95 96 95 92 90 85 82 81 88 92 95 94 91 86 82 81 87 84 72 61 65 66 63 57 40 13 18 69 82 43 5 32 98 109 110 118 131 141 140 131 132 138 148 131 54 64 39 30 350
137 124 111 101 95 91 88 84 81 88 90 83 74 76 72 70 76 91 98 96 86 90 94 98 100 101 100 100 97 98 93 84 86 89 92 86 88 83 76 65 59 37 42 51 16 31 23 66 121 134 149 117 65 28 76 45 92 98 82 70 60 46 30
111 87 77 82 83 81 75 73 74 76 71 63 56 63 72 73 80 80 68 75 111 109 96 99 101 98 96 96 99 108 109 106 102 101 99 104 100 94 87 76 57 52 49 47 42 36 51 59 53 50 42 69 114 83 66 58 83 83 72 63 55 58 38
112 110 113 107 101 94 89 88 82 79 75 68 64 63 69 86 92 102 105 99 76 80 93 88 87 91 100 106 117 116 108 106 109 110 112 115 117 111 107 94 90 70 46 44 43 46 53 53 52 49 54 50 59 95 109 67 69 76 68 55 23 357 332